Deming, NM

12:59 PM MST on November 20, 2017 (GMT -0700)
Deming Municipal

Weather History for KDMN - July, 2013

Change the Weather History Date:

Sunday, July 7, 2013

  Actual Average Record
Temperature  
Mean Temperature 88 °F 81 °F  
Max Temperature 102 °F 97 °F 108 °F (1951)
Min Temperature 74 °F 65 °F 49 °F (1987)
Cooling Degree Days 22    
Growing Degree Days 36 (Base 50)    
Moisture  
Dew Point 53 °F    
Average Humidity 36    
Maximum Humidity 54    
Minimum Humidity 17    
Precipitation  
Precipitation 0.01 in 0.06 in 0.60 in (1988)
Month to date precipitation 0.27 0.38  
Year to date precipitation 0.78 3.49  
Sea Level Pressure  
Sea Level Pressure 29.76 in    
Wind  
Wind Speed 9 mph (NE)    
Max Wind Speed 28 mph    
Max Gust Speed 37 mph    
Visibility 10 miles    
Events Rain , Thunderstorm    
T = Trace of Precipitation, MM = Missing Value Source: NWS Daily Summary

Daily Weather History Graph

Daily Weather History Graph

Search for Another Location

Airport or City:

Trip Planner

Search our weather history database for the weather conditions in past years. The results will help you decide how hot, cold, wet, or windy it might be!

Date:

Astronomy

Jul. 07, 2013 Rise Set
Actual Time 6:10 AM MDT 8:20 PM MDT
Civil Twilight 5:42 AM MDT 8:48 PM MDT
Nautical Twilight 5:08 AM MDT 9:23 PM MDT
Astronomical Twilight 4:31 AM MDT 10:00 PM MDT
Moon 5:45 AM MDT (7/7) 7:51 PM MDT (7/7)
Length of Visible Light 15h 06m
Length of Day
14h 10m
Waning Crescent, 0% of the Moon is Illuminated
Jul 7
Waning Crescent
Jul 8
New
Jul 15
First Quarter
Jul 22
Full
Jul 29
Last Quarter

Hourly Weather History & Observations

Time (MDT) Temp. Heat Index Dew Point Humidity Pressure Visibility Wind Dir Wind Speed Gust Speed Precip Events Conditions
12:18 AM 82.4 °F 81.4 °F 53.6 °F 37% 29.94 in 10.0 mi NW 19.6 mph 29.9 mph 0.03 in Rain Light Rain
12:53 AM 81.0 °F 81.0 °F 57.0 °F 44% 29.69 in 10.0 mi WSW 15.0 mph 21.9 mph 0.03 in   Scattered Clouds
1:53 AM 78.1 °F - 59.0 °F 52% 29.69 in 10.0 mi West 6.9 mph - N/A   Partly Cloudy
2:53 AM 75.9 °F - 57.9 °F 54% 29.73 in 9.0 mi NE 9.2 mph - 0.00 in Rain Light Rain
3:53 AM 75.9 °F - 55.9 °F 50% 29.69 in 10.0 mi NNE 16.1 mph - 0.01 in   Scattered Clouds
4:53 AM 78.1 °F - 55.0 °F 45% 29.67 in 10.0 mi NE 16.1 mph - N/A   Clear
5:53 AM 77.0 °F - 54.0 °F 45% 29.69 in 10.0 mi NNE 13.8 mph 23.0 mph N/A   Clear
6:53 AM 73.9 °F - 55.9 °F 53% 29.73 in 10.0 mi ENE 9.2 mph - N/A   Clear
7:53 AM 75.0 °F - 57.9 °F 55% 29.76 in 10.0 mi ESE 8.1 mph - N/A   Clear
8:53 AM 84.0 °F 83.3 °F 57.0 °F 40% 29.76 in 10.0 mi ENE 9.2 mph - N/A   Clear
9:53 AM 86.0 °F 84.2 °F 54.0 °F 33% 29.77 in 10.0 mi ENE 4.6 mph - N/A   Clear
10:53 AM 89.1 °F 86.9 °F 54.0 °F 30% 29.76 in 10.0 mi Variable 5.8 mph - N/A   Clear
11:53 AM 91.0 °F - 52.0 °F 26% 29.74 in 10.0 mi Variable 6.9 mph - N/A   Clear
12:53 PM 93.9 °F - 51.1 °F 23% 29.72 in 10.0 mi SW 5.8 mph - N/A   Clear
1:53 PM 96.1 °F - 48.9 °F 20% 29.70 in 10.0 mi Calm Calm - N/A   Clear
2:53 PM 98.1 °F - 46.0 °F 17% 29.68 in 10.0 mi Variable 5.8 mph - N/A   Clear
3:53 PM 99.0 °F - 46.9 °F 17% 29.65 in 10.0 mi Variable 6.9 mph - N/A   Clear
4:34 PM 100.4 °F - 44.6 °F 15% 29.91 in 10.0 mi Variable 5.8 mph - N/A Thunderstorm Partly Cloudy
4:47 PM 100.4 °F - 44.6 °F 15% 29.91 in 10.0 mi Variable 4.6 mph - N/A Thunderstorm Clear
4:53 PM 99.0 °F - 48.9 °F 18% 29.64 in 3.0 mi NE 27.6 mph 36.8 mph N/A Thunderstorm Haze
5:08 PM 95.0 °F - 48.2 °F 20% 29.92 in 10.0 mi NNE 21.9 mph 29.9 mph N/A Thunderstorm Scattered Clouds
5:53 PM 93.9 °F - 50.0 °F 22% 29.65 in 10.0 mi ENE 12.7 mph - N/A Thunderstorm Clear
6:13 PM 95.0 °F - 50.0 °F 22% 29.91 in 10.0 mi East 6.9 mph - N/A   Clear
6:53 PM 93.9 °F - 48.9 °F 21% 29.66 in 10.0 mi SE 9.2 mph 19.6 mph N/A   Clear
7:53 PM 93.0 °F - 50.0 °F 23% 29.67 in 10.0 mi Calm Calm - N/A   Clear
8:53 PM 89.1 °F 86.7 °F 53.1 °F 29% 29.69 in 10.0 mi ESE 4.6 mph - N/A   Clear
9:53 PM 88.0 °F - 52.0 °F 29% 29.73 in 10.0 mi North 3.5 mph - N/A   Mostly Cloudy
10:30 PM 87.8 °F 85.7 °F 53.6 °F 31% 30.01 in 10.0 mi NNW 9.2 mph - N/A Thunderstorm Mostly Cloudy
10:53 PM 84.0 °F 83.8 °F 59.0 °F 43% 29.76 in 10.0 mi Variable 5.8 mph - 0.00 in Rain , Thunderstorm Light Rain
11:17 PM 80.6 °F 80.8 °F 57.2 °F 45% 30.05 in 10.0 mi WNW 17.3 mph 25.3 mph 0.00 in Thunderstorm Thunderstorm
11:53 PM 80.1 °F 80.4 °F 57.0 °F 45% 29.80 in 10.0 mi NW 16.1 mph - 0.00 in Thunderstorm Thunderstorm